Location: Berduj
(43.0019°N, 22.3781°E)
Time: 06:02:48
(UTC+00:00)

Meteor 1-21 Rocket - Pass Details

Date: 19 October 2019
Orbit: 833 x 907 km, 81.2° (Epoch: 15 November)

Event Time Altitude Azimuth Distance (km) Brightness Sun altitude
Rises 16:07:01 0° 348° (NNW) 3,528 7.5 -5.3°
Reaches altitude 10° 16:09:30 10° 348° (NNW) 2,575 6.8 -5.7°
Maximum altitude 16:15:22 82° 262° (W) 898 4.5 -6.8°
Drops below altitude 10° 16:21:05 10° 176° (S) 2,510 6.7 -7.8°
Sets 16:23:29 0° 175° (S) 3,432 7.4 -8.3°
